[[{"header":{"parameterUnit":"m.s-1","parameterCategory":1,"la1":30.2991,"la2":30.254,"lo1":-89.0895,"lo2":-89.0444,"dy":0.0017,"dx":0.0017,"nx":28,"ny":28,"refTime":"2023-03-31T21:00:00:Z","depth":0,"parameterNumber":2,"parameterNumberName":"U-component_of_WINDS"},"data":[0,0,0,0,0,0,0,0,0,0,0,0,0,0,0,0,0,0,0,0,0,0,0,0,0,0,0,0,0,0,0,0,0,0,0,0,0,0,0,0,0,0,0,0,0,0,0,0,0,0,0,0,0,0,0,0,0,0,3.0509,3.0509,0,3.047,3.0469,3.0469,3.0436,3.0435,3.0435,3.0435,3.0394,3.0394,3.0393,0,0,0,0,0,0,0,0,0,0,0,0,0,3.0559,3.0558,3.0509,3.0509,3.0508,3.047,3.0469,3.0469,3.0436,3.0435,3.0435,3.0434,3.0395,3.0394,3.0393,0,0,0,0,0,0,0,0,0,0,0,0,0,3.053,3.0558,3.0509,3.0487,3.0485,3.047,3.0469,3.0468,3.0436,3.0435,3.0435,3.0434,3.0395,3.0394,3.0393,3.0397,0,0,3.0389,3.0389,0,0,0,0,0,0,0,0,3.0532,3.0528,3.0491,3.0489,3.0486,3.0457,3.0472,3.0444,3.0436,3.0454,3.0435,3.0434,3.0416,3.0413,3.0407,3.0395,3.0393,3.0389,3.0389,3.0388,3.0388,0,0,0,0,0,0,0,3.0534,3.053,3.0493,3.049,3.0487,3.048,3.0475,3.0466,3.0439,3.0453,3.045,3.0446,3.0414,3.0408,3.0405,3.0392,3.0389,3.0388,3.0388,3.0387,3.0386,3.0387,0,0,0,0,0,0,3.0539,3.0532,3.0495,3.0492,3.0508,3.048,3.0474,3.0467,3.0438,3.0434,3.0447,3.0445,3.041,3.0407,3.0404,3.0409,3.0388,3.0387,3.0387,3.0386,3.0386,3.0387,0,0,0,0,0,0,3.054,3.0536,3.0496,3.0511,3.0506,3.0479,3.0471,3.0466,3.046,3.0434,3.0429,3.0445,3.0409,3.0405,3.04,3.0407,3.0387,3.0386,3.0385,3.0386,3.0387,3.0418,0,0,0,0,0,0,3.0542,3.0536,3.0537,3.0511,3.0505,3.0492,3.0471,3.0466,3.0458,3.0455,3.0431,3.0426,3.0409,3.0401,3.0399,3.0405,3.0385,3.0384,3.0385,3.0386,3.0416,3.042,3.0423,0,0,0,0,0,3.0543,3.0546,3.0537,3.0533,3.0505,3.0492,3.0488,3.0468,3.0459,3.0459,3.0444,3.0427,3.0407,3.0401,3.0398,3.0404,3.0383,3.0385,3.0386,3.0415,3.0419,3.0423,0,0,0,0,0,0,3.0572,3.0542,3.0532,3.0526,3.0512,3.0487,3.0486,3.0473,3.0461,3.0459,3.0434,3.0429,3.0426,3.0414,3.0409,3.0408,3.0393,3.0394,3.0416,3.042,3.0424,3.0427,3.0384,0,0,0,0,0,3.0577,3.0569,3.0544,3.0542,3.0536,3.0513,3.0506,3.0492,3.0476,3.047,3.0454,3.0439,3.043,3.0424,3.0414,3.0415,3.041,3.0418,3.0421,3.0424,3.0425,3.0428,3.0432,3.0392,3.0392,3.0392,0,0,3.0589,3.0572,3.0568,3.0547,3.0535,3.0528,3.0508,3.05,3.0496,3.0469,3.0463,3.0451,3.0434,3.0432,3.043,3.0422,3.0436,3.0426,3.0428,3.0428,3.043,3.0434,3.0437,3.0393,3.0392,3.0392,0,0,3.0606,3.0592,3.059,3.0579,3.0561,3.0546,3.0546,3.0523,3.0514,3.0508,3.0489,3.0484,3.0468,3.0457,3.045,3.0469,3.0454,3.0466,3.0484,3.0487,3.049,3.0493,3.0502,3.0505,3.0467,3.0467,3.0467,0,3.0622,3.0611,3.059,3.0586,3.0578,3.0556,3.0555,3.0545,3.0524,3.052,3.0511,3.0493,3.048,3.0477,3.0482,3.0476,3.0477,3.0468,3.0491,3.0494,3.0496,3.0504,3.0507,3.0469,3.0469,3.0469,3.0468,0,3.0633,3.0626,3.0627,3.0609,3.0602,3.0599,3.058,3.0575,3.0563,3.055,3.0546,3.053,3.0518,3.0516,3.0503,3.0512,3.0508,3.0496,3.048,3.0502,3.0509,3.0512,3.0471,3.0471,3.047,3.047,0,0,3.0664,3.0639,3.0639,3.0633,3.0613,3.0608,3.0605,3.0594,3.0592,3.058,3.0578,3.0567,3.0557,3.0549,3.0535,3.0538,3.0557,3.0525,3.0525,3.0533,3.057,3.058,3.0584,3.0548,3.0548,3.0549,3.0572,0,3.0679,3.0673,3.0657,3.0656,3.0651,3.0632,3.063,3.0619,3.0608,3.0603,3.0591,3.0584,3.057,3.0565,3.0567,3.0554,3.0564,3.0552,3.0548,3.0548,3.0553,3.0587,3.0597,3.0619,3.0574,3.0575,3.0575,0,3.0695,3.0686,3.0686,3.0671,3.0668,3.0666,3.0657,3.0652,3.064,3.0632,3.0626,3.0611,3.061,3.0596,3.0595,3.0587,3.0585,3.0579,3.058,3.0578,3.0563,3.0588,3.0626,3.063,3.0579,3.0579,3.0578,0,3.072,3.0708,3.0707,3.0702,3.0683,3.0684,3.0676,3.0664,3.0659,3.0652,3.0649,3.0641,3.0637,3.0632,3.0617,3.0608,3.0619,3.0603,3.0614,3.0614,3.0616,3.0617,3.0655,3.0614,3.0614,3.0614,3.0613,0,3.0739,3.074,3.0719,3.0718,3.072,3.0702,3.0705,3.0695,3.0685,3.0684,3.0667,3.0666,3.0646,3.0643,3.0632,3.0635,3.0632,3.0627,3.0624,3.0629,3.063,3.0627,3.0626,3.0614,3.0614,3.0614,3.0614,0,3.0766,3.0752,3.075,3.0734,3.073,3.0733,3.0719,3.0719,3.0709,3.0708,3.0706,3.069,3.0687,3.0671,3.0664,3.0656,3.0664,3.0657,3.0668,3.0666,3.0679,3.0678,3.0717,3.0723,3.0677,3.0678,3.0678,0,3.0779,3.0779,3.0765,3.0763,3.0757,3.0754,3.0751,3.0735,3.0732,3.0722,3.0723,3.0719,3.0715,3.0711,3.0699,3.0695,3.0688,3.0703,3.0687,3.0694,3.0691,3.0691,3.0693,3.0706,3.0706,3.0707,3.0707,0,3.0804,3.0798,3.0793,3.0788,3.0785,3.078,3.0773,3.0773,3.0756,3.0754,3.0752,3.0749,3.0743,3.074,3.0734,3.0728,3.0716,3.0712,3.0715,3.072,3.0727,3.0726,3.0678,3.0711,3.0711,3.071,3.071,3.071,3.0825,3.0826,3.0817,3.0814,3.0809,3.0805,3.0805,3.0796,3.0793,3.0788,3.0779,3.0779,3.0771,3.0762,3.0757,3.0758,3.075,3.0753,3.0754,3.0756,3.0759,3.0727,3.0756,3.0756,3.0756,3.0756,3.0756,0,3.085,3.0845,3.0843,3.0836,3.0835,3.0825,3.0818,3.0818,3.0818,3.0812,3.0809,3.0808,3.0807,3.0796,3.0794,3.0796,3.0791,3.0796,3.0796,3.0796,3.0765,3.0764,3.0801,3.0801,3.0801,3.0801,3.0801,3.0801,3.0863,3.0866,3.086,3.0861,3.0856,3.0856,3.0854,3.0851,3.0846,3.0846,3.0845,3.0839,3.0832,3.083,3.0829,3.0826,3.0827,3.0834,3.083,3.0802,3.0797,3.0793,3.0792,3.0834,3.0834,3.086,3.0861,3.0861]},{"header":{"parameterUnit":"m.s-1","parameterCategory":1,"la1":30.2991,"la2":30.254,"lo1":-89.0895,"lo2":-89.0444,"dy":0.0017,"dx":0.0017,"nx":28,"ny":28,"refTime":"2023-03-31T21:00:00:Z","depth":0,"parameterNumber":3,"parameterNumberName":"V-component_of_WINDS"},"data":[0,0,0,0,0,0,0,0,0,0,0,0,0,0,0,0,0,0,0,0,0,0,0,0,0,0,0,0,0,0,0,0,0,0,0,0,0,0,0,0,0,0,0,0,0,0,0,0,0,0,0,0,0,0,0,0,0,0,3.4766,3.4767,0,3.4915,3.4917,3.4919,3.4932,3.493,3.4928,3.4927,3.5077,3.5083,3.5088,0,0,0,0,0,0,0,0,0,0,0,0,0,3.4489,3.4494,3.4765,3.4767,3.4769,3.4915,3.4917,3.4919,3.4932,3.493,3.4928,3.4926,3.5076,3.5082,3.5089,0,0,0,0,0,0,0,0,0,0,0,0,0,3.4621,3.4496,3.4765,3.4793,3.4797,3.4914,3.4917,3.4919,3.4932,3.493,3.4927,3.4925,3.5074,3.5081,3.509,3.5188,0,0,3.5115,3.5118,0,0,0,0,0,0,0,0,3.4614,3.4631,3.4787,3.4792,3.4796,3.4902,3.4875,3.5009,3.4933,3.4881,3.4927,3.4924,3.5021,3.5033,3.5067,3.5195,3.5202,3.5116,3.5121,3.5124,3.5126,0,0,0,0,0,0,0,3.4605,3.4625,3.4825,3.479,3.4795,3.4798,3.4814,3.49,3.4962,3.4885,3.4887,3.4904,3.5023,3.5059,3.507,3.5204,3.5115,3.5123,3.5128,3.5131,3.5422,3.5425,0,0,0,0,0,0,3.459,3.4617,3.482,3.4829,3.4697,3.4805,3.4823,3.4871,3.4962,3.4973,3.4906,3.4904,3.5046,3.5061,3.5075,3.5198,3.5124,3.5132,3.5136,3.5419,3.5423,3.5426,0,0,0,0,0,0,3.4584,3.4608,3.4814,3.4724,3.475,3.4812,3.4866,3.4875,3.4911,3.4977,3.4988,3.4931,3.5044,3.5064,3.5161,3.5203,3.5135,3.5143,3.5416,3.542,3.5424,3.5443,0,0,0,0,0,0,3.4576,3.4606,3.4645,3.4724,3.4755,3.4897,3.4868,3.4879,3.4925,3.4924,3.5004,3.5015,3.5044,3.5148,3.5169,3.5213,3.5149,3.5412,3.5418,3.5423,3.5439,3.5447,3.5454,0,0,0,0,0,3.4567,3.4643,3.4646,3.4671,3.4804,3.4899,3.4917,3.495,3.4928,3.4967,3.501,3.5012,3.5195,3.5158,3.5181,3.5229,3.541,3.5416,3.5422,3.5435,3.5445,3.5454,0,0,0,0,0,0,3.4565,3.4654,3.4659,3.4763,3.4824,3.4901,3.4952,3.4959,3.5026,3.5022,3.506,3.5077,3.5173,3.521,3.5168,3.533,3.53,3.5311,3.5302,3.5312,3.532,3.5309,3.5156,0,0,0,0,0,3.4577,3.4648,3.4721,3.4806,3.4837,3.4889,3.4932,3.4952,3.5016,3.5041,3.5091,3.5152,3.5224,3.527,3.5339,3.5444,3.5462,3.5488,3.5496,3.5502,3.5512,3.5571,3.5584,3.5446,3.5446,3.5446,0,0,3.4603,3.466,3.4702,3.4808,3.4857,3.4929,3.491,3.4987,3.5041,3.5052,3.5147,3.5186,3.5257,3.5358,3.5405,3.5392,3.5553,3.551,3.5515,3.5521,3.5579,3.5592,3.5603,3.5451,3.545,3.5449,0,0,3.4686,3.4736,3.4813,3.4864,3.4939,3.4973,3.4992,3.5069,3.5095,3.5191,3.5202,3.5266,3.5388,3.5438,3.548,3.5583,3.5588,3.5605,3.5646,3.5703,3.5714,3.5724,3.5761,3.5774,3.5614,3.5614,3.5614,0,3.4708,3.4817,3.4852,3.4929,3.4975,3.499,3.5069,3.5115,3.5209,3.5241,3.5225,3.5379,3.5428,3.5542,3.5567,3.56,3.5622,3.5596,3.571,3.572,3.5729,3.5766,3.578,3.5615,3.5615,3.5615,3.5615,0,3.4841,3.4917,3.497,3.5062,3.5114,3.5191,3.5237,3.5286,3.5301,3.5337,3.5435,3.5494,3.5576,3.5605,3.562,3.5721,3.5711,3.5702,3.5673,3.5744,3.5779,3.5793,3.5618,3.5617,3.5617,3.5616,0,0,3.4927,3.5038,3.5057,3.5099,3.5184,3.5243,3.5321,3.5402,3.5444,3.5508,3.5574,3.5678,3.5671,3.5718,3.5739,3.5789,3.5869,3.5774,3.5776,3.579,3.5985,3.5992,3.6007,3.5872,3.5874,3.5877,3.5979,0,3.5021,3.5161,3.5195,3.5315,3.5386,3.5402,3.547,3.5529,3.5565,3.5629,3.5668,3.5742,3.5726,3.5755,3.5805,3.5848,3.5908,3.5841,3.5934,3.5937,3.5917,3.6025,3.6033,3.6127,3.5993,3.5995,3.5997,0,3.5149,3.5217,3.5345,3.5422,3.5453,3.5513,3.5591,3.5653,3.572,3.5743,3.5796,3.5813,3.5894,3.5861,3.5974,3.5928,3.5968,3.5995,3.5999,3.601,3.5972,3.604,3.6157,3.6171,3.6018,3.6017,3.6015,0,3.52,3.5324,3.5417,3.5452,3.5544,3.5586,3.5626,3.5691,3.5739,3.5806,3.5837,3.5913,3.5955,3.6013,3.6049,3.6022,3.616,3.6129,3.6181,3.618,3.621,3.6208,3.6336,3.6234,3.6234,3.6234,3.6233,0,3.5301,3.5379,3.5442,3.5499,3.5586,3.5624,3.5709,3.5749,3.5807,3.5872,3.589,3.595,3.5995,3.6061,3.609,3.618,3.6198,3.6218,3.6225,3.6218,3.6215,3.6245,3.624,3.6237,3.6237,3.6236,3.6235,0,3.5374,3.5419,3.5521,3.56,3.5621,3.5683,3.575,3.5806,3.5842,3.5924,3.5946,3.6003,3.6082,3.6124,3.6223,3.6242,3.6343,3.6346,3.6321,3.6324,3.6374,3.6369,3.6527,3.655,3.6431,3.6432,3.6433,0,3.5436,3.5496,3.5582,3.5627,3.5669,3.5741,3.579,3.5829,3.5879,3.5961,3.6007,3.6088,3.6155,3.628,3.633,3.6406,3.6411,3.6461,3.6423,3.6414,3.6413,3.641,3.6417,3.6468,3.6469,3.647,3.6471,0,3.5541,3.5561,3.5631,3.571,3.5768,3.5831,3.5894,3.593,3.5979,3.6034,3.6117,3.6168,3.627,3.635,3.643,3.647,3.6479,3.6483,3.6499,3.6492,3.6476,3.6486,3.6341,3.6479,3.6478,3.6478,3.6477,3.6477,3.5611,3.5666,3.5736,3.5814,3.5865,3.5924,3.5981,3.6025,3.6095,3.6181,3.62,3.6287,3.6353,3.6462,3.6505,3.6573,3.6563,3.6586,3.6592,3.6597,3.66,3.6464,3.6587,3.6587,3.6587,3.6587,3.6587,0,3.5719,3.5765,3.5836,3.5924,3.5985,3.599,3.6059,3.611,3.6187,3.6249,3.6314,3.6409,3.6487,3.6543,3.6623,3.6667,3.6673,3.6686,3.6684,3.6693,3.6604,3.6583,3.668,3.668,3.668,3.668,3.668,3.668,3.5782,3.5876,3.5904,3.6023,3.6069,3.6155,3.6195,3.6249,3.6299,3.6404,3.647,3.6506,3.6566,3.665,3.6722,3.6736,3.6765,3.6778,3.6793,3.6709,3.6699,3.669,3.667,3.6784,3.6784,3.6877,3.6878,3.6878]}]]